QTR341 LEPA-GCFV

Flight info

Callsign QTR341
Flight time N/A
Altitude 41000
Route BAVER5A/24R BAVER M603 ALT N851 VJF L82 RUNAX UL82 IBALU UN857 TERTO
Aircraft A359/H-SDE2E3GHIJ3J4J5LM1ORWXY/LB1D1

Departure

Time N/A
Airport Palma de Mallorca Airport (LEPA)

Arrival

Time 2026-05-03 22:22
Airport Fuerteventura Airport (GCFV)
Time Latitude Longitude Altitude Speed Heading
2026-05-03 20:15 37.57848 -2.43057 40995 ft 421 kts 246°
2026-05-03 20:15 37.55308 -2.49702 40991 ft 421 kts 246°
2026-05-03 20:16 37.52790 -2.56281 40992 ft 421 kts 245°
2026-05-03 20:16 37.50234 -2.62908 40988 ft 420 kts 246°
2026-05-03 20:17 37.47685 -2.69545 40993 ft 421 kts 246°
2026-05-03 20:17 37.45130 -2.76188 40987 ft 422 kts 246°
2026-05-03 20:18 37.42566 -2.82830 40988 ft 421 kts 246°
2026-05-03 20:18 37.40014 -2.89432 40991 ft 419 kts 246°
2026-05-03 20:19 37.37456 -2.96020 40991 ft 419 kts 245°
2026-05-03 20:19 37.34890 -3.02610 40995 ft 419 kts 245°
2026-05-03 20:20 37.32340 -3.09148 40998 ft 419 kts 245°
2026-05-03 20:20 37.29781 -3.15706 41086 ft 416 kts 244°
2026-05-03 20:21 37.27207 -3.22266 41009 ft 422 kts 245°
2026-05-03 20:21 37.25044 -3.27775 41022 ft 420 kts 245°
2026-05-03 20:22 37.22478 -3.34315 41024 ft 419 kts 245°
2026-05-03 20:22 37.19897 -3.40854 41019 ft 418 kts 245°
2026-05-03 20:23 37.17321 -3.47370 41013 ft 418 kts 245°
2026-05-03 20:23 37.14733 -3.53912 41017 ft 419 kts 245°
2026-05-03 20:24 37.12142 -3.60451 41016 ft 419 kts 245°
2026-05-03 20:24 37.09549 -3.66989 41009 ft 419 kts 245°
2026-05-03 20:25 37.06966 -3.73479 41007 ft 413 kts 245°
2026-05-03 20:25 37.04432 -3.79824 41018 ft 407 kts 245°
2026-05-03 20:26 37.01919 -3.86109 41019 ft 401 kts 245°
2026-05-03 20:26 36.99440 -3.92301 41013 ft 395 kts 245°
2026-05-03 20:27 36.96983 -3.98428 41011 ft 395 kts 245°
2026-05-03 20:27 36.94489 -4.04638 41005 ft 403 kts 244°
2026-05-03 20:28 36.91950 -4.10942 40965 ft 412 kts 244°
2026-05-03 20:28 36.89350 -4.17376 41004 ft 418 kts 245°
2026-05-03 20:29 36.86722 -4.23878 41003 ft 419 kts 244°
2026-05-03 20:29 36.84088 -4.30373 41001 ft 419 kts 245°
2026-05-03 20:30 36.81531 -4.36896 41002 ft 417 kts 249°
2026-05-03 20:30 36.79463 -4.43607 40994 ft 417 kts 251°
2026-05-03 20:31 36.77480 -4.50408 40982 ft 417 kts 251°
2026-05-03 20:31 36.75506 -4.57221 40997 ft 417 kts 251°
2026-05-03 20:32 36.73526 -4.64016 40991 ft 417 kts 250°
2026-05-03 20:32 36.71535 -4.70818 40987 ft 417 kts 250°
2026-05-03 20:33 36.69533 -4.77619 40995 ft 417 kts 250°
2026-05-03 20:33 36.67530 -4.84408 40996 ft 417 kts 250°
2026-05-03 20:34 36.65532 -4.91168 40999 ft 418 kts 250°
2026-05-03 20:34 36.63520 -4.97960 41002 ft 417 kts 250°
2026-05-03 20:35 36.61509 -5.04723 41017 ft 416 kts 251°
2026-05-03 20:35 36.59496 -5.11481 40997 ft 416 kts 250°
2026-05-03 20:36 36.57480 -5.18243 41025 ft 416 kts 250°
2026-05-03 20:36 36.55473 -5.24951 41025 ft 416 kts 250°
2026-05-03 20:37 36.53449 -5.31706 41028 ft 417 kts 250°
2026-05-03 20:37 36.51417 -5.38461 41023 ft 417 kts 250°
2026-05-03 20:38 36.48881 -5.44958 41037 ft 418 kts 243°
2026-05-03 20:38 36.45980 -5.51232 41042 ft 419 kts 242°
2026-05-03 20:39 36.43016 -5.57463 41039 ft 419 kts 241°
2026-05-03 20:39 36.40047 -5.63690 41042 ft 419 kts 242°
2026-05-03 20:40 36.37107 -5.69874 41047 ft 419 kts 241°
2026-05-03 20:40 36.34144 -5.76105 41041 ft 419 kts 242°
2026-05-03 20:41 36.31181 -5.82336 41039 ft 419 kts 242°
2026-05-03 20:41 36.28707 -5.87523 41046 ft 419 kts 242°
2026-05-03 20:42 36.25254 -5.94753 41049 ft 419 kts 242°
2026-05-03 20:42 36.22539 -5.99754 41049 ft 421 kts 237°
2026-05-03 20:43 36.19031 -6.05572 41049 ft 422 kts 236°
2026-05-03 20:43 36.15467 -6.11351 41051 ft 422 kts 236°
2026-05-03 20:44 36.11905 -6.17114 41048 ft 421 kts 236°
2026-05-03 20:44 36.08342 -6.22883 41032 ft 421 kts 236°
2026-05-03 20:45 36.04783 -6.28642 41052 ft 421 kts 236°
2026-05-03 20:45 36.01226 -6.34397 41053 ft 421 kts 236°
2026-05-03 20:46 35.97686 -6.40115 41050 ft 421 kts 236°
2026-05-03 20:46 35.94119 -6.45862 41051 ft 421 kts 236°
2026-05-03 20:47 35.90556 -6.51604 41058 ft 421 kts 236°
2026-05-03 20:47 35.86989 -6.57335 41049 ft 421 kts 236°
2026-05-03 20:48 35.83443 -6.63020 41050 ft 420 kts 236°
2026-05-03 20:48 35.79864 -6.68744 41049 ft 420 kts 236°
2026-05-03 20:49 35.76295 -6.74449 41056 ft 421 kts 236°
2026-05-03 20:49 35.72721 -6.80152 41056 ft 421 kts 236°
2026-05-03 20:50 35.69139 -6.85861 41069 ft 421 kts 236°
2026-05-03 20:50 35.65586 -6.91511 41066 ft 420 kts 236°
2026-05-03 20:51 35.62008 -6.97190 41064 ft 420 kts 236°
2026-05-03 20:51 35.58427 -7.02867 41068 ft 420 kts 236°
2026-05-03 20:52 35.54842 -7.08540 41068 ft 420 kts 236°
2026-05-03 20:52 35.51256 -7.14206 41070 ft 420 kts 235°
2026-05-03 20:53 35.47683 -7.19841 41073 ft 421 kts 236°
2026-05-03 20:53 35.44091 -7.25500 41072 ft 420 kts 236°
2026-05-03 20:54 35.40494 -7.31156 41075 ft 420 kts 236°
2026-05-03 20:54 35.35098 -7.39621 41075 ft 420 kts 235°
2026-05-03 20:55 35.31501 -7.45255 41080 ft 420 kts 235°
2026-05-03 20:55 35.27911 -7.50864 41080 ft 420 kts 235°
2026-05-03 20:56 35.24309 -7.56487 41075 ft 420 kts 236°
2026-05-03 20:56 35.20696 -7.62121 41088 ft 420 kts 236°
2026-05-03 20:57 35.17086 -7.67738 41092 ft 420 kts 236°
2026-05-03 20:57 35.13469 -7.73356 41086 ft 420 kts 235°
2026-05-03 20:58 35.09874 -7.78929 41084 ft 420 kts 236°
2026-05-03 20:58 35.06252 -7.84536 41085 ft 420 kts 235°
2026-05-03 20:59 35.02630 -7.90135 41088 ft 420 kts 235°
2026-05-03 20:59 34.99011 -7.95722 41090 ft 420 kts 235°
2026-05-03 21:00 34.96018 -8.00337 41090 ft 420 kts 235°
2026-05-03 21:00 34.91779 -8.06859 41092 ft 420 kts 235°
2026-05-03 21:01 34.88141 -8.12444 41091 ft 420 kts 235°
2026-05-03 21:01 34.84508 -8.18015 41092 ft 420 kts 235°
2026-05-03 21:02 34.80899 -8.23542 41094 ft 420 kts 235°
2026-05-03 21:02 34.77258 -8.29108 41094 ft 420 kts 235°
2026-05-03 21:03 34.73618 -8.34668 41095 ft 420 kts 235°
2026-05-03 21:03 34.69969 -8.40230 41076 ft 420 kts 235°
2026-05-03 21:04 34.66325 -8.45776 41100 ft 420 kts 234°
2026-05-03 21:04 34.62698 -8.51285 41102 ft 420 kts 235°
2026-05-03 21:05 34.59049 -8.56822 41102 ft 420 kts 235°
2026-05-03 21:05 34.55394 -8.62358 41100 ft 420 kts 234°
2026-05-03 21:06 34.51776 -8.67829 41138 ft 420 kts 233°
2026-05-03 21:06 34.48123 -8.73347 41054 ft 420 kts 234°
2026-05-03 21:07 34.44345 -8.78693 41067 ft 418 kts 229°
2026-05-03 21:07 34.39906 -8.83325 41059 ft 421 kts 224°
2026-05-03 21:08 34.35315 -8.87747 41063 ft 422 kts 223°
2026-05-03 21:08 34.30691 -8.92142 41061 ft 422 kts 223°
2026-05-03 21:09 34.26072 -8.96546 41064 ft 422 kts 223°
2026-05-03 21:09 34.21462 -9.00955 41064 ft 422 kts 224°
2026-05-03 21:10 34.16857 -9.05359 41063 ft 422 kts 224°
2026-05-03 21:10 34.12275 -9.09735 41057 ft 422 kts 223°
2026-05-03 21:11 34.07677 -9.14119 41067 ft 423 kts 223°
2026-05-03 21:11 34.03049 -9.18525 41067 ft 423 kts 223°
2026-05-03 21:12 33.98421 -9.22922 41067 ft 423 kts 223°
2026-05-03 21:12 33.93796 -9.27312 41070 ft 423 kts 223°
2026-05-03 21:13 33.89163 -9.31705 41067 ft 423 kts 223°
2026-05-03 21:13 33.84561 -9.36059 41054 ft 423 kts 223°
2026-05-03 21:14 33.79911 -9.40455 41066 ft 424 kts 223°
2026-05-03 21:14 33.75259 -9.44845 41067 ft 425 kts 223°
2026-05-03 21:15 33.70607 -9.49229 41063 ft 425 kts 223°
2026-05-03 21:15 33.65986 -9.53577 41066 ft 425 kts 223°
2026-05-03 21:16 33.61331 -9.57952 41068 ft 425 kts 223°
2026-05-03 21:16 33.56672 -9.62324 41055 ft 425 kts 223°
2026-05-03 21:17 33.52799 -9.65955 41065 ft 426 kts 223°
2026-05-03 21:17 33.47334 -9.71071 41066 ft 426 kts 223°
2026-05-03 21:18 33.42701 -9.75400 41063 ft 426 kts 223°
2026-05-03 21:18 33.37987 -9.79800 41067 ft 426 kts 223°
2026-05-03 21:19 33.33308 -9.84159 41067 ft 426 kts 223°
2026-05-03 21:19 33.28633 -9.88510 41045 ft 426 kts 223°
2026-05-03 21:20 33.23943 -9.92868 41062 ft 427 kts 223°
2026-05-03 21:20 33.19281 -9.97196 41062 ft 427 kts 223°
2026-05-03 21:21 33.14577 -10.01555 41083 ft 427 kts 222°
2026-05-03 21:21 33.09881 -10.05902 41063 ft 428 kts 222°
2026-05-03 21:22 33.05173 -10.10251 41062 ft 428 kts 223°
2026-05-03 21:22 33.00468 -10.14588 41065 ft 428 kts 223°
2026-05-03 21:23 32.95757 -10.18923 41065 ft 428 kts 222°
2026-05-03 21:23 32.91050 -10.23251 41064 ft 427 kts 223°
2026-05-03 21:24 32.86372 -10.27545 41065 ft 427 kts 223°
2026-05-03 21:24 32.81643 -10.31880 41068 ft 427 kts 223°
2026-05-03 21:25 32.76934 -10.36190 41063 ft 427 kts 223°
2026-05-03 21:25 32.72239 -10.40481 41033 ft 428 kts 222°
2026-05-03 21:26 32.67515 -10.44791 41069 ft 428 kts 223°
2026-05-03 21:26 32.62782 -10.49105 41071 ft 429 kts 222°
2026-05-03 21:27 32.58074 -10.53391 41068 ft 429 kts 223°
2026-05-03 21:27 32.53342 -10.57694 41068 ft 429 kts 222°
2026-05-03 21:28 32.48603 -10.61994 41069 ft 428 kts 222°
2026-05-03 21:28 32.43867 -10.66287 41068 ft 428 kts 222°
2026-05-03 21:29 32.39933 -10.69850 41068 ft 428 kts 223°
2026-05-03 21:29 32.35194 -10.74138 41069 ft 429 kts 222°
2026-05-03 21:30 32.29677 -10.79119 41068 ft 429 kts 222°
2026-05-03 21:30 32.25702 -10.82704 41070 ft 429 kts 222°
2026-05-03 21:31 32.20991 -10.86946 41069 ft 429 kts 222°
2026-05-03 21:31 32.16252 -10.91207 41070 ft 429 kts 222°
2026-05-03 21:32 32.11491 -10.95484 41061 ft 429 kts 222°
2026-05-03 21:32 32.06760 -10.99727 41066 ft 430 kts 222°
2026-05-03 21:33 32.01982 -11.04007 41065 ft 430 kts 222°
2026-05-03 21:33 31.97213 -11.08274 41068 ft 430 kts 222°
2026-05-03 21:34 31.92469 -11.12512 41070 ft 430 kts 222°
2026-05-03 21:34 31.87710 -11.16758 41070 ft 430 kts 222°
2026-05-03 21:35 31.82946 -11.21003 41073 ft 430 kts 222°
2026-05-03 21:35 31.78183 -11.25242 41067 ft 431 kts 222°
2026-05-03 21:36 31.73419 -11.29477 41067 ft 431 kts 222°
2026-05-03 21:36 31.68657 -11.33725 41070 ft 431 kts 222°
2026-05-03 21:37 31.63876 -11.37985 41071 ft 430 kts 222°
2026-05-03 21:37 31.59109 -11.42229 41070 ft 430 kts 222°
2026-05-03 21:38 31.54361 -11.46449 41055 ft 430 kts 221°
2026-05-03 21:38 31.49574 -11.50698 41068 ft 431 kts 221°
2026-05-03 21:39 31.44794 -11.54932 41066 ft 431 kts 221°
2026-05-03 21:39 31.40030 -11.59148 41066 ft 431 kts 222°
2026-05-03 21:40 31.35238 -11.63385 41067 ft 431 kts 222°
2026-05-03 21:40 31.30443 -11.67617 41067 ft 431 kts 222°
2026-05-03 21:41 31.25647 -11.71844 41034 ft 431 kts 222°
2026-05-03 21:41 31.20850 -11.76069 41070 ft 431 kts 221°
2026-05-03 21:42 31.16087 -11.80256 41071 ft 432 kts 221°
2026-05-03 21:42 31.11288 -11.84470 41067 ft 432 kts 222°
2026-05-03 21:43 31.06485 -11.88682 41065 ft 432 kts 221°
2026-05-03 21:43 31.01684 -11.92887 41066 ft 432 kts 221°
2026-05-03 21:44 30.96881 -11.97088 41065 ft 432 kts 221°
2026-05-03 21:44 30.92073 -12.01289 41064 ft 432 kts 221°
2026-05-03 21:45 30.87261 -12.05486 41067 ft 432 kts 221°
2026-05-03 21:45 30.82456 -12.09673 41064 ft 432 kts 221°
2026-05-03 21:46 30.77679 -12.13831 41066 ft 431 kts 221°
2026-05-03 21:46 30.72874 -12.18006 41067 ft 431 kts 221°
2026-05-03 21:47 30.68071 -12.22174 41066 ft 431 kts 221°
2026-05-03 21:47 30.63252 -12.26352 41061 ft 432 kts 221°
2026-05-03 21:48 30.58436 -12.30523 41062 ft 432 kts 221°
2026-05-03 21:48 30.53621 -12.34686 41070 ft 432 kts 221°
2026-05-03 21:49 30.48830 -12.38823 41069 ft 432 kts 221°
2026-05-03 21:49 30.44004 -12.42974 41069 ft 432 kts 221°
2026-05-03 21:50 30.39177 -12.47117 41071 ft 431 kts 221°
2026-05-03 21:50 30.34348 -12.51258 41053 ft 431 kts 221°
2026-05-03 21:51 30.29524 -12.55391 41067 ft 432 kts 221°
2026-05-03 21:51 30.24689 -12.59527 41067 ft 432 kts 221°
2026-05-03 21:52 30.19859 -12.63653 41067 ft 432 kts 221°
2026-05-03 21:52 30.15020 -12.67782 41067 ft 432 kts 221°
2026-05-03 21:53 30.10185 -12.71789 40672 ft 428 kts 217°
2026-05-03 21:53 30.07609 -12.73535 39977 ft 431 kts 214°
2026-05-03 21:53 30.04977 -12.75223 39240 ft 434 kts 214°
2026-05-03 21:54 30.02332 -12.76906 38485 ft 437 kts 214°
2026-05-03 21:54 29.99655 -12.78611 37631 ft 440 kts 214°
2026-05-03 21:54 29.96961 -12.80331 36788 ft 441 kts 214°
2026-05-03 21:54 29.94294 -12.82029 36261 ft 436 kts 213°
2026-05-03 21:55 29.91633 -12.83723 35456 ft 438 kts 214°
2026-05-03 21:55 29.88954 -12.85433 34562 ft 442 kts 213°
2026-05-03 21:55 29.86249 -12.87159 33567 ft 447 kts 213°
2026-05-03 21:55 29.85115 -12.87882 33120 ft 450 kts 213°
2026-05-03 21:56 29.82921 -12.89280 32261 ft 454 kts 213°
2026-05-03 21:56 29.80132 -12.91056 31220 ft 459 kts 213°
2026-05-03 21:57 29.77388 -12.92803 30195 ft 464 kts 213°
2026-05-03 21:57 29.74585 -12.94584 29076 ft 467 kts 212°
2026-05-03 21:57 29.71751 -12.96383 28321 ft 463 kts 212°
2026-05-03 21:57 29.68945 -12.98163 27590 ft 458 kts 212°
2026-05-03 21:58 29.66162 -12.99927 26888 ft 454 kts 212°
2026-05-03 21:58 29.63411 -13.01672 26203 ft 450 kts 212°
2026-05-03 21:58 29.60674 -13.03406 25528 ft 446 kts 212°
2026-05-03 21:58 29.57968 -13.05120 24871 ft 442 kts 212°
2026-05-03 21:59 29.55290 -13.06815 24227 ft 438 kts 212°
2026-05-03 21:59 29.52623 -13.08503 23548 ft 434 kts 212°
2026-05-03 21:59 29.49988 -13.10169 22768 ft 430 kts 212°
2026-05-03 21:59 29.47374 -13.11820 22020 ft 427 kts 212°
2026-05-03 22:00 29.44787 -13.13454 21262 ft 423 kts 212°
2026-05-03 22:00 29.42236 -13.15064 20561 ft 419 kts 212°
2026-05-03 22:00 29.39690 -13.16670 19865 ft 415 kts 212°
2026-05-03 22:00 29.37171 -13.18258 19174 ft 412 kts 212°
2026-05-03 22:01 29.34691 -13.19796 18496 ft 409 kts 210°
2026-05-03 22:01 29.32125 -13.21213 17709 ft 407 kts 208°
2026-05-03 22:01 29.29573 -13.22578 16969 ft 404 kts 208°
2026-05-03 22:01 29.27035 -13.23945 16330 ft 399 kts 208°
2026-05-03 22:02 29.24546 -13.25295 16136 ft 395 kts 208°
2026-05-03 22:02 29.22038 -13.26665 16124 ft 401 kts 208°
2026-05-03 22:02 29.19531 -13.28038 15711 ft 397 kts 208°
2026-05-03 22:02 29.17047 -13.29398 14975 ft 396 kts 208°
2026-05-03 22:03 29.14570 -13.30750 14275 ft 392 kts 208°
2026-05-03 22:03 29.12112 -13.32094 13514 ft 389 kts 208°
2026-05-03 22:03 29.09678 -13.33424 12761 ft 386 kts 208°
2026-05-03 22:03 29.07297 -13.34725 12027 ft 382 kts 208°
2026-05-03 22:04 29.04903 -13.36033 11312 ft 379 kts 208°
2026-05-03 22:04 29.02536 -13.37327 10601 ft 376 kts 207°
2026-05-03 22:04 29.00217 -13.38590 9926 ft 372 kts 207°
2026-05-03 22:04 28.97913 -13.39845 9542 ft 358 kts 207°
2026-05-03 22:05 28.95711 -13.41044 9272 ft 343 kts 208°
2026-05-03 22:05 28.93607 -13.42189 9011 ft 328 kts 208°
2026-05-03 22:05 28.91588 -13.43288 8782 ft 314 kts 208°
2026-05-03 22:05 28.89654 -13.44340 8574 ft 301 kts 207°
2026-05-03 22:06 28.87794 -13.45333 8357 ft 290 kts 207°
2026-05-03 22:06 28.85988 -13.46299 8008 ft 284 kts 207°
2026-05-03 22:06 28.84209 -13.47257 7571 ft 283 kts 207°
2026-05-03 22:06 28.82442 -13.48234 7168 ft 282 kts 208°
2026-05-03 22:07 28.80681 -13.49210 6732 ft 281 kts 209°
2026-05-03 22:07 28.78934 -13.50172 6282 ft 281 kts 208°
2026-05-03 22:07 28.77168 -13.51141 5787 ft 283 kts 208°
2026-05-03 22:07 28.75388 -13.52113 5316 ft 284 kts 208°
2026-05-03 22:08 28.73609 -13.53082 4868 ft 283 kts 207°
2026-05-03 22:08 28.71829 -13.54049 4394 ft 284 kts 207°
2026-05-03 22:08 28.70055 -13.55011 3971 ft 281 kts 207°
2026-05-03 22:08 28.68306 -13.55959 3531 ft 282 kts 207°
2026-05-03 22:09 28.66552 -13.56910 3169 ft 277 kts 206°
2026-05-03 22:09 28.64816 -13.57851 3028 ft 276 kts 206°
2026-05-03 22:09 28.63078 -13.58793 3008 ft 277 kts 206°
2026-05-03 22:10 28.59592 -13.60680 3009 ft 278 kts 206°
2026-05-03 22:10 28.57850 -13.61623 3004 ft 277 kts 206°
2026-05-03 22:10 28.56107 -13.62566 3004 ft 276 kts 206°
2026-05-03 22:10 28.54373 -13.63503 3006 ft 277 kts 206°
2026-05-03 22:11 28.52600 -13.64387 3002 ft 279 kts 201°
2026-05-03 22:11 28.50766 -13.65141 3002 ft 281 kts 200°
2026-05-03 22:11 28.48929 -13.65876 2999 ft 280 kts 200°
2026-05-03 22:11 28.47087 -13.66600 2998 ft 280 kts 200°
2026-05-03 22:12 28.45251 -13.67313 2998 ft 279 kts 199°
2026-05-03 22:12 28.43414 -13.68022 2999 ft 280 kts 199°
2026-05-03 22:12 28.41565 -13.68732 2999 ft 281 kts 199°
2026-05-03 22:12 28.39652 -13.69467 2993 ft 303 kts 199°
2026-05-03 22:13 28.37608 -13.70250 2986 ft 314 kts 199°
2026-05-03 22:13 28.35533 -13.71044 2997 ft 316 kts 199°
2026-05-03 22:13 28.33399 -13.71860 2987 ft 340 kts 199°
2026-05-03 22:13 28.31112 -13.72734 2990 ft 351 kts 199°
2026-05-03 22:14 28.28785 -13.73622 2683 ft 353 kts 198°
2026-05-03 22:14 28.26483 -13.74517 2514 ft 347 kts 201°
2026-05-03 22:14 28.24390 -13.75748 2510 ft 327 kts 216°
2026-05-03 22:14 28.22869 -13.77492 2520 ft 299 kts 240°
2026-05-03 22:15 28.22235 -13.79594 2523 ft 270 kts 269°
2026-05-03 22:15 28.22315 -13.81630 2514 ft 249 kts 281°
2026-05-03 22:15 28.22540 -13.83502 2515 ft 230 kts 283°
2026-05-03 22:15 28.22854 -13.85166 2502 ft 200 kts 296°
2026-05-03 22:16 28.23529 -13.86355 2513 ft 167 kts 320°
2026-05-03 22:16 28.24510 -13.86959 2521 ft 160 kts 349°
2026-05-03 22:16 28.25609 -13.87049 2509 ft 157 kts
2026-05-03 22:16 28.26700 -13.86971 2504 ft 157 kts
2026-05-03 22:17 28.27795 -13.86933 2505 ft 157 kts
2026-05-03 22:17 28.28884 -13.86900 2499 ft 156 kts
2026-05-03 22:17 28.29974 -13.86871 2496 ft 157 kts
2026-05-03 22:17 28.31043 -13.86844 2505 ft 146 kts
2026-05-03 22:18 28.32033 -13.86819 2441 ft 139 kts
2026-05-03 22:18 28.32664 -13.86798 2310 ft 135 kts
2026-05-03 22:18 28.33583 -13.86765 2123 ft 128 kts
2026-05-03 22:18 28.34458 -13.86736 1964 ft 125 kts
2026-05-03 22:19 28.35322 -13.86706 1784 ft 124 kts
2026-05-03 22:19 28.36191 -13.86677 1619 ft 125 kts
2026-05-03 22:19 28.37335 -13.86640 1400 ft 124 kts
2026-05-03 22:19 28.37917 -13.86629 1241 ft 123 kts
2026-05-03 22:20 28.38778 -13.86624 1019 ft 125 kts
2026-05-03 22:20 28.39648 -13.86581 823 ft 125 kts
2026-05-03 22:20 28.40521 -13.86555 712 ft 126 kts
2026-05-03 22:20 28.41389 -13.86538 580 ft 124 kts
2026-05-03 22:21 28.42238 -13.86481 424 ft 124 kts
2026-05-03 22:21 28.43128 -13.86478 312 ft 129 kts
2026-05-03 22:21 28.43992 -13.86424 101 ft 125 kts
2026-05-03 22:21 28.44799 -13.86400 72 ft 98 kts
2026-05-03 22:22 28.45379 -13.86376 87 ft 75 kts
2026-05-03 22:22 28.45644 -13.86403 97 ft 12 kts 290°
2026-05-03 22:22 28.45660 -13.86490 98 ft 0 kts 277°
2026-05-03 22:22 28.45647 -13.86527 105 ft 15 kts 232°
2026-05-03 22:23 28.45546 -13.86556 105 ft 18 kts 188°
2026-05-03 22:23 28.45348 -13.86568 104 ft 32 kts 179°
2026-05-03 22:23 28.45142 -13.86577 103 ft 23 kts 193°
2026-05-03 22:23 28.45106 -13.86699 105 ft 15 kts 295°
2026-05-03 22:24 28.45202 -13.86739 105 ft 15 kts 356°
2026-05-03 22:24 28.45266 -13.86794 105 ft 11 kts 287°
2026-05-03 22:24 28.45268 -13.86812 105 ft 0 kts 277°